Date,TemperatureHighF,TemperatureAvgF,TemperatureLowF,DewpointHighF,DewpointAvgF,DewpointLowF,HumidityHigh,HumidityAvg,HumidityLow,PressureMaxIn,PressureMinIn,WindSpeedMaxMPH,WindSpeedAvgMPH,GustSpeedMaxMPH,PrecipitationSumIn
2013-1-1,32.2,29.3,22.6,29.8,23.5,11.5,92,79,55,28.85,28.70,5,5,5,0.00
2013-1-2,27.0,22.2,20.3,17.1,12.7,8.2,80,67,55,29.00,28.82,5,5,5,0.00
2013-1-3,28.6,22.8,12.4,23.0,13.4,5.6,83,67,52,29.00,28.82,5,5,5,0.00
2013-1-4,36.1,29.0,26.8,22.2,17.2,12.3,79,62,45,28.94,28.79,5,5,5,0.00
2013-1-5,37.9,28.4,26.1,22.1,19.2,13.0,77,68,52,29.14,28.91,5,5,5,0.00
2013-1-6,39.0,33.3,27.1,32.7,26.7,19.9,97,77,64,28.97,28.70,13,4,13,0.00
2013-1-7,35.6,31.5,26.1,32.1,24.2,18.3,94,75,57,29.23,28.88,3,3,3,0.00
2013-1-8,53.2,27.2,14.0,32.4,20.2,11.4,93,76,38,29.14,29.03,3,3,3,0.08
2013-1-9,50.4,26.7,19.0,37.6,21.0,16.3,98,81,47,29.20,28.88,3,3,3,0.00
2013-1-10,50.5,32.2,21.9,32.2,25.1,18.3,95,77,48,29.41,29.14,3,3,3,0.00
2013-1-11,47.1,39.6,33.1,41.8,30.9,20.6,98,74,44,29.26,28.76,3,3,3,0.00
2013-1-12,58.6,43.4,36.9,53.8,41.9,36.2,98,95,77,28.88,28.82,3,2,3,0.00
2013-1-13,70.2,56.6,40.1,57.5,51.0,39.4,98,83,59,28.85,28.61,10,2,10,0.00
2013-1-14,58.5,35.9,28.6,55.4,27.0,16.2,97,71,52,29.20,28.61,24,5,24,0.00
2013-1-15,36.3,29.3,25.7,20.0,16.5,13.6,70,59,47,29.20,28.94,8,2,8,0.00
2013-1-16,37.0,32.2,28.9,30.2,24.5,16.6,84,73,60,29.00,28.64,13,2,13,0.00
2013-1-17,35.1,32.9,27.0,27.2,22.5,17.2,83,66,53,28.94,28.70,19,5,19,0.00
2013-1-18,32.7,23.1,16.9,20.1,9.9,4.7,88,58,42,29.26,28.88,14,5,17,0.00
2013-1-19,55.2,40.7,28.0,29.1,19.5,10.9,55,43,36,29.03,28.52,24,4,24,0.42
2013-1-20,46.8,33.6,20.8,26.6,16.4,6.8,75,50,38,28.91,28.41,30,10,30,0.00
2013-1-21,23.9,19.6,12.9,16.0,9.1,0.7,82,64,48,28.88,28.64,17,5,17,0.00
2013-1-22,13.3,8.5,5.9,1.6,-2.9,-5.3,59,59,59,29.00,28.70,28,8,28,0.00
2013-1-23,15.3,8.2,2.7,1.6,-5.0,-11.2,59,54,46,29.00,28.88,15,4,15,0.00
2013-1-24,23.2,8.0,-1.8,8.1,-7.0,-15.9,63,50,44,29.32,28.82,18,3,18,0.00
2013-1-25,18.0,9.4,-0.6,6.6,-4.0,-16.0,64,54,47,29.29,28.82,5,1,8,0.00
2013-1-26,30.2,19.6,12.4,18.3,10.0,2.2,81,66,54,29.20,28.82,10,1,10,0.00
2013-1-27,43.3,25.2,15.1,20.6,14.3,9.6,87,65,40,29.32,29.12,4,1,4,0.04
2013-1-28,38.7,32.9,27.0,37.6,29.5,13.0,98,88,52,29.14,28.73,0,0,0,0.17
2013-1-29,50.4,40.4,34.9,49.1,39.9,34.4,98,98,98,28.85,28.61,0,0,0,0.29
2013-1-30,61.3,57.1,50.2,56.2,51.8,47.9,98,83,66,28.61,27.99,0,0,0,0.54
2013-1-31,54.3,28.9,20.3,50.5,20.9,8.9,93,72,50,28.55,27.96,28,7,28,0.16
2013-2-1,24.3,18.7,11.5,15.9,9.2,-1.0,86,67,47,29.06,28.52,30,8,30,1.24
2013-2-2,23.5,16.7,10.8,12.9,8.4,-1.5,84,70,54,29.03,28.73,14,2,14,0.00
2013-2-3,31.1,18.8,15.8,20.2,12.6,7.5,88,78,49,28.76,28.55,12,3,12,0.00
2013-2-4,28.6,20.2,15.1,16.3,11.2,5.6,88,69,51,28.82,28.64,5,5,5,0.00
2013-2-5,34.7,23.9,14.2,20.8,16.5,10.8,88,74,54,28.70,28.58,5,5,5,0.00
2013-2-6,36.9,25.3,10.9,24.8,14.8,2.8,94,66,40,29.17,28.70,10,4,10,0.00
2013-2-7,49.8,17.6,7.0,25.4,6.8,-1.0,83,64,38,29.14,28.85,1,1,1,0.00
2013-2-8,37.2,30.5,18.1,34.5,24.0,9.5,94,77,62,28.91,28.52,1,1,1,0.00
2013-2-9,36.5,19.7,10.9,16.9,9.8,3.7,73,66,43,29.17,28.91,11,4,11,0.00
2013-2-10,57.4,26.7,5.0,27.3,10.8,-2.0,82,55,24,29.17,28.82,7,7,7,0.00
2013-2-11,54.3,39.6,33.8,44.5,29.9,16.6,98,70,43,28.85,28.41,7,7,7,0.46
2013-2-12,34.0,31.6,23.2,24.1,21.1,17.1,78,65,59,28.82,28.61,22,6,22,0.00
2013-2-13,47.1,30.2,23.2,26.2,21.9,17.4,85,73,41,28.79,28.47,10,1,10,0.00
2013-2-14,37.4,31.2,21.9,34.1,25.9,17.2,96,81,67,28.73,28.58,6,2,6,0.12
2013-2-15,38.1,33.2,25.2,33.9,21.6,14.1,89,63,51,28.85,28.64,1,1,1,0.05
2013-2-16,35.1,24.0,12.6,14.6,10.0,0.4,74,55,37,28.88,28.70,1,1,1,0.00
2013-2-17,21.7,14.5,9.0,11.6,3.5,-2.4,85,61,48,28.97,28.70,21,5,21,0.00
2013-2-18,43.3,24.7,4.6,17.7,10.1,-1.5,85,57,23,29.06,28.70,12,2,12,11.78
2013-2-19,42.4,35.0,21.6,38.3,23.6,0.0,100,65,48,28.73,28.41,9,3,9,0.49
2013-2-20,22.6,18.7,16.7,15.0,8.3,3.8,76,63,47,28.91,28.64,3,2,3,0.00
2013-2-21,32.7,20.6,14.4,14.1,10.1,4.7,84,64,45,29.17,28.88,0,0,0,0.00
2013-2-22,34.2,26.6,17.4,27.7,18.9,9.9,89,73,51,29.14,28.82,0,0,0,0.00
2013-2-23,43.0,33.2,29.3,34.4,28.9,22.4,93,84,68,28.85,28.64,0,0,0,0.09
2013-2-24,33.8,28.7,27.0,22.4,18.7,13.8,75,66,54,28.94,28.64,9,0,9,0.00
2013-2-25,43.3,29.3,20.1,24.9,20.1,14.6,91,70,44,29.06,28.88,2,2,2,0.00
2013-2-26,42.1,30.8,19.6,34.4,24.0,16.6,98,78,49,28.97,28.47,2,2,2,0.49
2013-2-27,40.1,36.1,33.3,36.9,33.7,31.3,98,91,81,28.47,28.35,2,2,2,0.50
2013-2-28,37.6,34.0,32.4,32.9,30.1,26.9,97,86,74,28.58,28.35,9,3,9,0.13
2013-3-1,32.5,29.7,25.0,32.0,24.1,18.2,98,80,65,28.76,28.50,15,5,15,0.00
2013-3-2,28.6,24.7,22.6,20.6,17.0,12.9,86,73,55,28.76,28.67,11,4,11,0.00
2013-3-3,28.6,24.1,21.2,20.2,15.2,12.6,87,69,56,28.73,28.64,8,4,8,0.00
2013-3-4,27.1,22.3,20.8,20.0,15.9,13.6,92,76,63,28.88,28.70,8,8,8,0.00
2013-3-5,51.8,31.6,21.7,28.8,19.8,14.6,87,63,39,28.88,28.61,10,4,10,0.00
2013-3-6,46.6,35.4,27.0,26.6,22.1,17.9,79,59,43,28.94,28.58,10,2,10,0.04
2013-3-7,37.6,33.8,30.6,32.7,28.3,25.6,98,80,65,29.06,28.79,12,3,12,0.00
2013-3-8,47.1,34.7,23.5,31.0,23.6,17.6,98,67,40,29.23,29.06,18,5,18,0.08
2013-3-9,63.1,35.6,19.9,31.7,21.7,-6.9,92,63,9,29.23,29.00,8,8,8,0.00
2013-3-10,73.4,49.4,29.1,31.9,23.5,-13.7,79,43,3,29.03,28.82,8,8,8,0.00
2013-3-11,65.5,52.8,46.6,44.3,28.1,23.0,84,39,28,28.88,28.52,8,8,8,0.21
2013-3-12,49.3,38.7,34.0,45.8,33.3,23.2,97,81,63,28.76,28.52,8,7,8,14.14
2013-3-13,35.1,29.9,23.7,27.8,21.5,13.0,94,71,51,28.85,28.64,4,4,4,0.00
2013-3-14,33.3,25.6,23.7,23.0,15.3,10.4,94,66,43,28.94,28.82,17,4,17,14.14
2013-3-18,33.1,27.9,18.1,31.0,20.4,11.1,92,74,50,29.03,28.52,23,4,23,0.00
2013-3-19,38.8,31.4,25.2,34.2,24.9,15.6,98,78,52,28.67,28.47,22,5,22,0.05
2013-3-20,35.8,26.3,15.1,23.3,16.3,8.0,92,67,46,28.70,28.61,18,5,18,0.04
2013-3-21,30.2,21.7,13.5,23.1,13.9,6.5,94,73,46,28.67,28.55,16,4,16,0.00
2013-3-22,24.4,23.9,23.4,22.7,21.5,20.5,93,91,88,28.61,28.58,5,2,5,0.00
2013-3-23,40.5,30.6,21.4,21.7,19.6,15.9,81,65,45,28.85,28.76,15,4,15,0.00
2013-3-24,51.1,33.2,18.5,25.4,19.6,15.3,91,62,33,28.85,28.47,9,2,9,14.14
2013-3-25,42.8,35.5,30.2,31.6,26.1,18.6,88,69,50,28.55,28.35,8,2,8,0.08
2013-3-26,46.8,30.6,23.4,31.3,25.5,21.6,96,84,43,28.82,28.52,19,2,19,0.16
2013-3-27,42.3,35.3,30.7,31.8,25.9,22.3,95,69,51,28.94,28.58,18,5,18,0.16
2013-3-28,40.6,33.8,31.8,33.2,31.2,28.1,98,91,65,29.06,28.88,11,3,11,0.09
2013-3-29,51.8,38.6,28.4,35.8,27.6,16.3,97,69,37,29.06,28.94,15,2,15,14.72
2013-3-30,59.4,33.3,21.2,31.0,22.0,18.4,93,68,25,29.06,28.94,10,2,10,14.72
2013-3-31,57.6,40.7,29.8,43.6,31.7,18.5,96,72,36,28.88,28.50,11,2,11,0.12
2013-4-1,45.1,37.4,27.5,42.7,25.2,9.7,98,64,36,28.79,28.44,22,7,22,0.00
2013-4-2,37.2,28.7,21.2,24.2,15.3,9.4,90,59,36,28.97,28.76,20,6,20,0.00
2013-4-3,36.3,29.4,22.8,20.5,13.8,8.6,73,52,40,29.20,28.94,24,6,24,0.00
2013-4-4,61.2,35.7,15.3,22.7,6.1,-12.1,88,44,6,29.17,28.76,12,2,12,14.84
2013-4-5,50.9,35.9,23.0,28.9,19.0,12.0,78,51,38,28.97,28.70,16,4,16,0.00
2013-4-6,59.9,40.4,20.3,26.5,5.6,-11.1,86,37,6,29.09,28.85,8,2,8,0.00
2013-4-7,71.4,56.9,42.1,41.2,26.5,-11.7,72,34,8,28.85,28.61,16,6,16,0.00
2013-4-8,76.3,61.2,29.8,44.1,39.4,27.3,96,49,31,28.91,28.64,10,2,10,0.00
2013-4-9,79.5,66.0,45.3,49.9,44.1,39.8,85,48,32,28.91,28.67,0,0,0,14.84
2013-4-10,70.5,56.3,46.0,62.5,51.8,45.2,98,87,48,28.76,28.58,0,0,0,16.00
2013-4-11,46.9,45.2,42.4,46.0,43.6,35.8,98,94,77,28.76,28.58,10,6,10,0.09
2013-4-12,56.7,49.6,39.9,55.2,45.9,0.0,100,89,32,28.64,28.32,17,5,17,0.75
2013-4-13,47.8,41.3,36.3,35.1,30.6,25.0,94,67,48,28.82,28.61,18,6,18,0.70
2013-4-14,53.1,41.0,31.8,32.9,29.8,26.6,91,66,44,28.94,0.00,172,6,229,16.87
2013-4-15,70.5,45.3,36.5,43.8,34.9,31.8,89,70,37,28.94,28.85,172,4,172,16.87
2013-5-15,84.2,72.3,35.6,56.8,49.7,29.7,81,47,32,28.64,28.52,2,2,2,18.87
2013-5-16,80.2,56.6,47.3,57.3,45.3,31.1,97,74,21,28.85,28.61,10,7,10,0.67
2013-5-17,82.8,68.4,38.8,43.1,37.2,22.3,93,36,13,29.00,28.82,10,10,10,0.00
2013-5-18,90.1,68.2,54.9,54.3,44.2,36.5,70,43,28,29.03,28.88,10,10,10,0.00
2013-5-19,87.4,65.1,57.7,60.5,55.7,51.3,87,73,40,29.00,28.82,10,5,10,0.00
2013-5-20,97.9,76.1,58.1,65.1,60.0,55.7,96,62,32,28.91,28.70,7,2,7,0.00
2013-5-21,67.3,62.4,60.1,61.4,60.0,58.9,96,92,80,28.79,28.70,2,2,2,0.00
2013-6-2,61.9,61.9,61.9,57.3,57.3,57.3,85,85,85,28.79,28.79,3,3,3,0.00
2013-6-5,90.5,75.1,39.6,50.1,46.1,36.0,96,40,22,29.06,28.82,3,3,3,0.00
2013-6-6,67.5,62.8,59.7,60.3,56.8,47.7,97,82,51,28.85,28.64,3,3,3,587.94
2013-11-17,74.3,59.0,56.7,57.2,55.6,45.3,95,89,47,69.92,28.29,0,0,0,0.00
2013-11-18,59.0,52.9,48.0,42.4,36.8,33.7,59,54,49,28.52,28.29,0,0,0,0.00